TimeCST,TemperatureF,Dew PointF,Humidity,Sea Level PressureIn,VisibilityMPH,Wind Direction,Wind SpeedMPH,Gust SpeedMPH,PrecipitationIn,Events,Conditions,WindDirDegrees,DateUTC
12:15 AM,28.4,28.4,100,30.21,7.0,Calm,Calm,-,N/A,,Clear,0,2013-02-03 06:15:00
12:55 AM,30.2,28.4,93,30.21,8.0,Calm,Calm,-,N/A,,Clear,0,2013-02-03 06:55:00
1:15 AM,28.4,28.4,100,30.21,8.0,Calm,Calm,-,N/A,,Clear,0,2013-02-03 07:15:00
1:35 AM,28.4,28.4,100,30.20,8.0,Calm,Calm,-,N/A,,Clear,0,2013-02-03 07:35:00
1:55 AM,28.4,26.6,93,30.20,7.0,Calm,Calm,-,N/A,,Clear,0,2013-02-03 07:55:00
2:15 AM,30.2,28.4,93,30.20,8.0,Calm,Calm,-,N/A,,Clear,0,2013-02-03 08:15:00
2:35 AM,28.4,28.4,100,30.19,7.0,Calm,Calm,-,N/A,,Clear,0,2013-02-03 08:35:00
2:55 AM,28.4,28.4,100,30.18,10.0,Calm,Calm,-,N/A,,Clear,0,2013-02-03 08:55:00
3:15 AM,30.2,28.4,93,30.17,9.0,Calm,Calm,-,N/A,,Clear,0,2013-02-03 09:15:00
3:35 AM,35.6,32.0,87,30.18,9.0,West,3.5,-,N/A,,Clear,270,2013-02-03 09:35:00
3:55 AM,35.6,32.0,87,30.17,10.0,West,3.5,-,N/A,,Clear,270,2013-02-03 09:55:00
4:15 AM,33.8,32.0,93,30.17,9.0,West,3.5,-,N/A,,Clear,260,2013-02-03 10:15:00
4:35 AM,37.4,32.0,81,30.17,10.0,Calm,Calm,-,N/A,,Clear,0,2013-02-03 10:35:00
4:55 AM,35.6,32.0,87,30.16,10.0,Calm,Calm,-,N/A,,Clear,0,2013-02-03 10:55:00
5:15 AM,32.0,28.4,87,30.16,10.0,Calm,Calm,-,N/A,,Clear,0,2013-02-03 11:15:00
5:35 AM,32.0,30.2,93,30.16,10.0,West,3.5,-,N/A,,Clear,260,2013-02-03 11:35:00
5:55 AM,32.0,30.2,93,30.16,10.0,NW,3.5,-,N/A,,Clear,320,2013-02-03 11:55:00
6:15 AM,28.4,26.6,93,30.17,9.0,Calm,Calm,-,N/A,,Clear,0,2013-02-03 12:15:00
6:35 AM,28.4,28.4,100,30.18,9.0,Calm,Calm,-,N/A,,Clear,0,2013-02-03 12:35:00
6:55 AM,32.0,28.4,87,30.19,8.0,Calm,Calm,-,N/A,,Clear,0,2013-02-03 12:55:00
7:15 AM,32.0,28.4,87,30.19,9.0,Calm,Calm,-,N/A,,Clear,0,2013-02-03 13:15:00
7:35 AM,33.8,32.0,93,30.20,9.0,Calm,Calm,-,N/A,,Clear,0,2013-02-03 13:35:00
7:55 AM,39.2,32.0,75,30.20,9.0,WNW,3.5,-,N/A,,Clear,290,2013-02-03 13:55:00
8:15 AM,41.0,32.0,70,30.21,8.0,WNW,4.6,-,N/A,,Clear,300,2013-02-03 14:15:00
8:55 AM,44.6,32.0,61,30.22,9.0,NW,8.1,-,N/A,,Clear,310,2013-02-03 14:55:00
9:15 AM,46.4,32.0,57,30.22,8.0,NW,8.1,-,N/A,,Clear,310,2013-02-03 15:15:00
9:35 AM,48.2,32.0,54,30.22,9.0,WNW,8.1,-,N/A,,Clear,300,2013-02-03 15:35:00
9:55 AM,48.2,32.0,54,30.22,9.0,NW,9.2,-,N/A,,Clear,310,2013-02-03 15:55:00
10:15 AM,50.0,30.2,47,30.22,9.0,WNW,9.2,18.4,N/A,,Clear,300,2013-02-03 16:15:00
10:35 AM,51.8,28.4,41,30.22,8.0,NW,12.7,17.3,N/A,,Clear,320,2013-02-03 16:35:00
10:55 AM,51.8,28.4,41,30.22,9.0,NW,12.7,21.9,N/A,,Clear,320,2013-02-03 16:55:00
11:15 AM,51.8,26.6,38,30.22,8.0,NW,12.7,17.3,N/A,,Clear,320,2013-02-03 17:15:00
11:35 AM,53.6,24.8,33,30.20,10.0,NNW,13.8,18.4,N/A,,Clear,340,2013-02-03 17:35:00
11:55 AM,53.6,26.6,35,30.20,9.0,NW,13.8,23.0,N/A,,Clear,320,2013-02-03 17:55:00
12:15 PM,53.6,24.8,33,30.19,9.0,WNW,12.7,19.6,N/A,,Clear,300,2013-02-03 18:15:00
12:35 PM,53.6,24.8,33,30.18,9.0,NNW,13.8,18.4,N/A,,Clear,330,2013-02-03 18:35:00
12:55 PM,55.4,23.0,29,30.18,9.0,NW,16.1,21.9,N/A,,Clear,320,2013-02-03 18:55:00
1:15 PM,53.6,21.2,28,30.17,9.0,NNW,16.1,19.6,N/A,,Clear,340,2013-02-03 19:15:00
1:35 PM,53.6,24.8,33,30.17,9.0,NW,15.0,21.9,N/A,,Clear,310,2013-02-03 19:35:00
1:55 PM,53.6,23.0,30,30.16,9.0,NNW,10.4,18.4,N/A,,Clear,330,2013-02-03 19:55:00
2:15 PM,55.4,24.8,31,30.17,9.0,NNW,11.5,16.1,N/A,,Clear,330,2013-02-03 20:15:00
2:35 PM,53.6,26.6,35,30.17,10.0,NNW,12.7,18.4,N/A,,Clear,340,2013-02-03 20:35:00
2:55 PM,53.6,26.6,35,30.18,9.0,NW,15.0,-,N/A,,Clear,320,2013-02-03 20:55:00
3:15 PM,53.6,24.8,33,30.18,9.0,NW,15.0,-,N/A,,Clear,320,2013-02-03 21:15:00
3:35 PM,53.6,24.8,33,30.17,8.0,NW,12.7,17.3,N/A,,Clear,310,2013-02-03 21:35:00
3:55 PM,53.6,24.8,33,30.17,9.0,NNW,9.2,18.4,N/A,,Clear,330,2013-02-03 21:55:00
4:15 PM,53.6,26.6,35,30.17,10.0,NNW,10.4,-,N/A,,Clear,330,2013-02-03 22:15:00
4:55 PM,50.0,24.8,37,30.17,9.0,NNW,8.1,-,N/A,,Clear,330,2013-02-03 22:55:00
5:15 PM,48.2,26.6,43,30.17,10.0,NNW,4.6,-,N/A,,Clear,340,2013-02-03 23:15:00
5:55 PM,46.4,24.8,43,30.18,10.0,NNW,3.5,-,N/A,,Clear,340,2013-02-03 23:55:00
6:15 PM,44.6,26.6,49,30.17,10.0,Calm,Calm,-,N/A,,Clear,0,2013-02-04 00:15:00
6:35 PM,39.2,26.6,61,30.17,10.0,Calm,Calm,-,N/A,,Clear,0,2013-02-04 00:35:00
6:55 PM,39.2,26.6,61,30.17,10.0,Calm,Calm,-,N/A,,Clear,0,2013-02-04 00:55:00
7:15 PM,37.4,28.4,70,30.17,10.0,Calm,Calm,-,N/A,,Clear,0,2013-02-04 01:15:00
7:35 PM,37.4,28.4,70,30.18,10.0,Calm,Calm,-,N/A,,Clear,0,2013-02-04 01:35:00
7:55 PM,35.6,28.4,75,30.19,10.0,Calm,Calm,-,N/A,,Clear,0,2013-02-04 01:55:00
8:15 PM,33.8,28.4,81,30.18,10.0,Calm,Calm,-,N/A,,Clear,0,2013-02-04 02:15:00
8:35 PM,32.0,26.6,80,30.18,10.0,Calm,Calm,-,N/A,,Clear,0,2013-02-04 02:35:00
8:55 PM,32.0,28.4,87,30.19,10.0,Calm,Calm,-,N/A,,Clear,0,2013-02-04 02:55:00
9:15 PM,32.0,26.6,80,30.18,10.0,Calm,Calm,-,N/A,,Clear,0,2013-02-04 03:15:00
9:35 PM,32.0,26.6,80,30.17,10.0,East,3.5,-,N/A,,Clear,90,2013-02-04 03:35:00
9:55 PM,32.0,26.6,80,30.17,10.0,Calm,Calm,-,N/A,,Clear,0,2013-02-04 03:55:00
10:15 PM,32.0,26.6,80,30.17,10.0,Calm,Calm,-,N/A,,Clear,0,2013-02-04 04:15:00
10:35 PM,32.0,26.6,80,30.17,10.0,Calm,Calm,-,N/A,,Clear,0,2013-02-04 04:35:00
10:55 PM,30.2,26.6,86,30.15,10.0,Calm,Calm,-,N/A,,Clear,0,2013-02-04 04:55:00
11:15 PM,30.2,26.6,86,30.15,10.0,Calm,Calm,-,N/A,,Clear,0,2013-02-04 05:15:00
11:35 PM,30.2,26.6,86,30.14,10.0,Calm,Calm,-,N/A,,Clear,0,2013-02-04 05:35:00
11:55 PM,28.4,26.6,93,30.13,10.0,Calm,Calm,-,N/A,,Clear,0,2013-02-04 05:55:00